This demonstration page uses our WeatherBlox Daily Observations layout. Learn more.

39.92423, -83.80882

Hourly Observations for September 9, 2018

Temp ( °F °C ) Dew Point ( °F °C ) Humidity (%) Winds ( mph kmh ) Pressure ( in mb ) Visibility ( mi km ) Precip ( " mm )
12:56 am 00:56 Cloudy with Light Rain 58 14.4 58 14.4 100 100 ENE 22 35 29.92 1013 9 14.48406 0.05 1.27
1:56 am 01:56 Cloudy with Rain 58 14.4 57 13.9 97 97 ENE 21 33 29.93 1014 8 12.87472 0.09 2.286
2:56 am 02:56 Cloudy with Rain 57 13.9 57 13.9 100 100 ENE 10 17 29.93 1013 7 11.26538 0.29 7.366
3:56 am 03:56 Cloudy with Rain 56 13.3 56 13.3 100 100 NE 14 22 29.91 1013 6 9.65604 0.25 6.35
4:56 am 04:56 Cloudy with Rain 55 12.8 55 12.8 100 100 NE 14 22 29.91 1013 6 9.65604 0.15 3.81
5:56 am 05:56 Cloudy with Light Rain 55 12.8 55 12.8 100 100 ENE 15 24 29.89 1012 3 4.82802 0.07 1.778
6:56 am 06:56 Cloudy with Light Rain 55 12.8 55 12.8 100 100 ENE 13 20 29.88 1012 10 16.0934 0.02 0.508
7:28 am 07:28 Cloudy with Light Rain 55 13 55 13 100 100 ENE 13 20 29.88 1012 1.75 2.816345 0 0.0254
7:56 am 07:56 Cloudy with Light Rain 55 12.8 55 12.8 100 100 ENE 12 19 29.9 1013 2 3.21868 0.02 0.508
8:09 am 08:09 Cloudy with Light Rain 55 13 55 13 100 100 ENE 13 20 29.91 1013 3 4.82802 0 0.0254
8:56 am 08:56 Cloudy 56 13.3 56 13.3 100 100 ENE 12 19 29.9 1013 10 16.0934 0 0.0254
9:56 am 09:56 Cloudy 57 13.9 56 13.3 96 96 ENE 10 17 29.9 1013 10 16.0934 0 0
10:56 am 10:56 Cloudy with Light Rain 57 13.9 57 13.9 100 100 ENE 12 19 29.91 1013 10 16.0934 0.01 0.254
11:56 am 11:56 Cloudy with Rain 58 14.4 58 14.4 100 100 ENE 10 17 29.91 1013 9 14.48406 0.03 0.762
12:56 pm 12:56 Cloudy with Light Rain 59 15 58 14.4 96 96 NE 12 19 29.89 1012 10 16.0934 0.03 0.762
1:21 pm 13:21 Cloudy with Light Rain 59 15 57 14 94 94 ENE 12 19 29.88 1012 10 16.0934 0 0.0254
1:56 pm 13:56 Cloudy with Light Rain 60 15.6 59 15 96 96 ENE 9 15 29.88 1012 6 9.65604 0.02 0.508
2:56 pm 14:56 Cloudy with Light Rain 60 15.6 60 15.6 100 100 ENE 10 17 29.85 1011 10 16.0934 0 0.0254
3:09 pm 15:09 Cloudy with Light Rain 61 16 59 15 94 94 ENE 12 19 29.83 1010 10 16.0934 0 0.0254
3:29 pm 15:29 Cloudy with Light Rain 61 16 61 16 100 100 ENE 13 20 29.83 1010 10 16.0934 0 0.0254
3:47 pm 15:47 Cloudy with Light Rain 61 16 61 16 100 100 NE 12 19 29.83 1010 10 16.0934 0 0.0254
3:54 pm 15:54 Cloudy with Light Rain 61 16 59 15 94 94 NE 10 17 29.83 1010 10 16.0934 0 0.0254
3:56 pm 15:56 Cloudy with Light Rain 60 15.6 59 15 96 96 NE 10 17 29.85 1011 10 16.0934 0 0.0254
4:56 pm 16:56 Cloudy with Light Rain 60 15.6 60 15.6 100 100 NNE 8 13 29.85 1011 5 8.0467 0.01 0.254
5:28 pm 17:28 Cloudy with Light Rain 61 16 61 16 100 100 NNE 9 15 29.8 1009 10 16.0934 0.01 0.254
5:56 pm 17:56 Cloudy with Mist and Fog 60 15.6 60 15.6 100 100 NE 9 15 29.84 1011 6 9.65604 0.01 0.254
6:08 pm 18:08 Cloudy 61 16 61 16 100 100 NE 9 15 29.8 1009 9 14.48406 0 0
6:56 pm 18:56 Cloudy with Light Rain 60 15.6 60 15.6 100 100 NE 8 13 29.84 1010 5 8.0467 0.01 0.254
7:21 pm 19:21 Cloudy with Light Rain 61 16 61 16 100 100 NE 8 13 29.8 1009 2.5 4.02335 0.03 0.762
7:27 pm 19:27 Cloudy with Light Rain 61 16 61 16 100 100 NE 10 17 29.8 1009 3 4.82802 0.04 1.016
7:56 pm 19:56 Cloudy 60 15.6 60 15.6 100 100 NNE 7 11 29.83 1010 10 16.0934 0.04 1.016
8:52 pm 20:52 Cloudy 61 16 61 16 100 100 NNE 6 9 29.8 1009 10 16.0934 0.01 0.254
8:56 pm 20:56 Cloudy 60 15.6 60 15.6 100 100 NNE 6 9 29.84 1011 10 16.0934 0.01 0.254
9:19 pm 21:19 Cloudy 61 16 61 16 100 100 NE 7 11 29.83 1010 10 16.0934 0 0
9:56 pm 21:56 Cloudy 60 15.6 60 15.6 100 100 NE 7 11 29.84 1011 10 16.0934 0 0
10:56 pm 22:56 Cloudy 60 15.6 60 15.6 100 100 NE 6 9 29.85 1011 10 16.0934 0 0
11:56 pm 23:56 Cloudy with Light Rain 59 15 59 15 100 100 NE 3 6 29.85 1011 3 4.82802 0 0.0254

Powered by AerisWeather